FW2952 Weather Reports


time (UTC)temp
C
wind
direction
speed
KPH
gust
KPH
rain 1hr
cm
rain 24hr
cm
rain mn
cm
humidity
%
barometer
mb
20260506013325 1 221 6.4 14.5 0.00 0.03 0.03 72 1008.7
20260506011821 1 241 3.2 14.5 0.00 0.03 0.03 72 1008.6
20260506010340 1 258 6.4 16.1 0.00 0.03 0.03 71 1008.6
20260506004829 1 266 3.2 14.5 0.00 0.03 0.03 71 1008.5
20260506003329 1 261 1.6 11.3 0.00 0.03 0.03 71 1008.5
20260506001825 1 278 4.8 16.1 0.00 0.03 0.03 71 1008.6
20260506000324 0 234 6.4 14.5 0.00 0.03 0.03 73 1008.4
20260505234853 0 269 6.4 20.9 0.00 0.03 0.03 73 1008.2
20260505233328 0 341 4.8 20.9 0.00 0.03 0.03 74 1008.2
20260505231830 1 168 9.7 24.1 0.00 0.03 0.03 73 1008.1
20260505230344 1 238 6.4 19.3 0.00 0.03 0.03 71 1008.2
20260505224836 1 235 6.4 17.7 0.00 0.03 0.03 71 1008.1
20260505223332 1 230 3.2 14.5 0.00 0.03 0.03 72 1007.9
20260505221829 1 238 9.7 19.3 0.00 0.03 0.03 73 1007.8
20260505220330 1 269 4.8 20.9 0.00 0.03 0.03 74 1007.7
20260505214818 1 272 3.2 19.3 0.00 0.03 0.03 74 1007.7
20260505213320 1 240 8.0 20.9 0.00 0.03 0.03 73 1007.7
20260505211816 1 247 9.7 20.9 0.00 0.03 0.03 70 1007.6
20260505210317 1 256 6.4 17.7 0.00 0.03 0.03 71 1007.5
20260505204827 1 299 6.4 25.7 0.00 0.03 0.03 72 1007.4
20260505203330 2 214 4.8 19.3 0.00 0.03 0.03 73 1007.3
20260505201828 1 234 9.7 33.8 0.00 0.03 0.03 72 1007.1
20260505200328 1 303 9.7 22.5 0.00 0.03 0.03 72 1007.1
20260505194818 1 273 12.9 27.4 0.00 0.03 0.03 71 1007.1
20260505193313 1 259 6.4 29.0 0.00 0.03 0.03 71 1006.6
20260505191814 1 244 9.7 20.9 0.00 0.03 0.03 72 1006.6
20260505190351 1 273 8.0 29.0 0.00 0.03 0.03 72 1006.5
20260505184825 2 252 8.0 25.7 0.03 0.03 0.03 74 1006.5
20260505183320 1 243 6.4 16.1 0.03 0.03 0.03 79 1006.3
20260505181819 1 280 9.7 22.5 0.03 0.03 0.03 78 1006.2
20260505180332 1 316 11.3 32.2 0.03 0.03 0.03 76 1006.0
20260505174822 0 260 4.8 20.9 0.00 0.00 0.00 78 1006.0
20260505173323 0 231 3.2 14.5 0.00 0.00 0.00 80 1005.9
20260505171821 0 37 4.8 22.5 0.00 0.00 0.00 81 1005.7
20260505170321 0 307 9.7 19.3 0.00 0.00 0.00 81 1005.6
20260505164832 1 231 4.8 19.3 0.00 0.00 0.00 81 1005.5
20260505163314 1 276 4.8 17.7 0.00 0.00 0.00 83 1005.4
20260505161813 0 271 3.2 22.5 0.00 0.00 0.00 83 1005.2
20260505160331 0 255 8.0 19.3 0.00 0.00 0.00 85 1004.9
20260505153320 0 264 6.4 22.5 0.00 0.03 0.00 85 1004.8
20260505151823 1 276 4.8 14.5 0.00 0.03 0.00 83 1004.6
20260505150318 0 242 4.8 12.9 0.00 0.03 0.00 87 1004.4
20260505140329 1 119 3.2 9.7 0.00 0.23 0.00 79 1003.4
20260505124814 2 268 4.8 11.3 0.00 0.23 0.00 83 1002.7
20260505123315 1 268 6.4 12.9 0.00 0.23 0.00 80 1002.6
20260505121831 1 228 1.6 9.7 0.00 0.23 0.00 83 1002.4
20260505120332 1 284 3.2 9.7 0.00 0.23 0.00 81 1002.3
20260505114828 1 276 3.2 8.0 0.00 0.23 0.00 84 1001.9
20260505113325 0 259 3.2 9.7 0.00 0.23 0.00 85 1001.9
20260505111825 0 304 3.2 9.7 0.00 0.23 0.00 86 1001.8
20260505110325 0 349 3.2 9.7 0.00 0.23 0.00 87 1001.6
20260505101835 0 270 1.6 11.3 0.00 0.23 0.00 92 1001.1
20260505100329 0 259 1.6 6.4 0.00 0.23 0.00 92 1000.9
20260505094817 0 265 1.6 4.8 0.00 0.23 0.00 92 1000.8
20260505093338 0 261 1.6 3.2 0.00 0.23 0.00 90 1000.9
20260505091831 0 285 0.0 6.4 0.00 0.23 0.00 89 1000.8
20260505090330 0 246 1.6 3.2 0.00 0.23 0.00 90 1000.7
20260505084821 0 311 0.0 4.8 0.00 0.23 0.00 89 1000.7
20260505083322 0 233 1.6 11.3 0.00 0.23 0.00 86 1000.7
20260505081817 0 241 3.2 9.7 0.00 0.23 0.00 84 1000.4
20260505080314 0 283 3.2 17.7 0.00 0.23 0.00 86 1000.4
20260505074828 0 276 3.2 14.5 0.00 0.23 0.00 85 1000.4
20260505073343 0 265 0.0 8.0 0.00 0.23 0.00 86 1000.4
20260505071823 1 259 1.6 9.7 0.00 0.23 0.00 84 1000.3
20260505070319 1 276 3.2 11.3 0.00 0.23 0.00 80 1000.2
20260505064827 1 212 3.2 14.5 0.00 0.23 0.00 84 1000.0
20260505063327 1 251 4.8 19.3 0.00 0.23 0.00 85 999.8
20260505061822 1 281 4.8 16.1 0.00 0.23 0.00 88 999.7
20260505060344 1 295 3.2 11.3 0.00 0.23 0.00 87 999.7
20260505054833 1 283 3.2 14.5 0.00 0.23 0.00 87 999.5
20260505053332 2 252 3.2 17.7 0.00 0.23 0.00 87 999.3
20260505051826 2 204 4.8 20.9 0.00 0.23 0.00 86 999.0
20260505050324 2 280 6.4 16.1 0.00 0.23 0.00 85 998.9
20260505040313 2 248 8.0 19.3 0.00 0.23 0.00 83 998.3
20260505034826 2 233 4.8 16.1 0.00 0.23 0.23 83 998.3
20260505033341 2 280 6.4 20.9 0.00 0.23 0.23 84 998.2
20260505031819 3 261 6.4 19.3 0.00 0.23 0.23 84 998.3
20260505030315 3 295 8.0 22.5 0.00 0.23 0.23 84 998.3
20260505024828 3 13 4.8 22.5 0.00 0.23 0.23 84 998.1
20260505023328 3 215 6.4 16.1 0.00 0.23 0.23 83 998.2
20260505021844 3 278 9.7 29.0 0.00 0.23 0.23 78 997.7
20260505020323 4 270 9.7 25.7 0.00 0.23 0.23 79 997.6
20260505014831 4 255 8.0 25.7 0.00 0.23 0.23 76 997.3